Theta_e
307 307 307 307 306 308 309 310 309 309 309 309 308 309 309 309 309 309 309 309 309 310 311 311 312 314 315 318 323 325 327 328 338 342 341 341 341 340 340 340 339 340 343 345
305 307 308 308 308 308 309 310 310 310 312 312 310 311 309 309 309 309 309 309 308 308 309 309 311 312 313 315 318 322 326 328 333 343 342 342 342 342 341 342 343 343 341 342
306 307 308 310 310 310 310 313 314 313 313 311 310 312 311 309 309 309 308 308 307 307 307 307 309 310 311 314 315 318 323 327 329 337 343 343 343 343 344 343 340 338 343 344
307 307 308 307 309 312 312 313 312 312 312 311 311 311 310 309 308 308 307 306 304 305 309 312 313 310 311 312 312 314 318 326 330 338 344 344 342 343 343 342 339 341 337 337
307 307 307 307 310 313 310 312 311 312 312 311 310 308 309 309 310 308 306 312 312 313 313 313 313 313 314 315 313 313 316 325 329 342 344 344 342 342 341 340 337 337 338 339
306 306 308 310 312 311 311 311 308 309 307 310 309 309 308 307 308 308 314 315 314 313 312 312 312 313 314 315 316 315 316 322 329 338 345 343 341 340 337 336 336 336 339 341
307 307 312 311 311 308 307 306 308 309 311 312 309 311 309 308 312 314 316 314 313 312 310 310 311 311 314 316 317 316 316 324 330 334 340 342 341 340 337 334 333 339 343 346
307 307 309 310 310 308 308 307 308 312 313 309 309 312 309 309 314 314 315 313 313 311 310 310 311 312 315 316 316 316 317 321 329 334 335 339 339 337 334 332 333 337 338 343
309 310 309 308 308 307 308 308 306 310 309 310 309 309 308 309 314 314 313 312 312 312 312 312 313 314 316 316 314 314 319 318 328 333 334 336 337 335 332 331 334 336 338 343
308 311 309 309 308 308 310 309 310 306 313 314 311 310 311 310 311 314 312 312 313 313 311 311 312 313 316 314 314 314 323 318 325 331 333 334 335 334 332 333 336 338 342 346
309 308 310 309 308 308 308 310 311 307 308 308 313 311 309 312 312 313 312 313 312 311 312 313 314 315 315 315 315 315 322 320 325 329 330 332 333 334 334 335 336 339 343 347
311 309 311 311 308 309 308 310 310 308 310 312 312 313 309 312 312 312 312 313 312 312 313 314 315 316 316 317 318 318 325 325 324 328 329 331 332 335 336 338 338 342 346 347
310 309 312 309 307 307 311 312 311 309 309 315 315 312 312 312 313 313 313 313 314 314 313 315 316 318 319 320 321 330 334 333 329 326 329 331 335 337 339 341 342 346 347 346
312 308 312 311 309 307 311 312 311 313 316 313 313 312 311 311 312 313 314 313 314 315 315 316 317 318 318 320 328 328 333 337 334 337 337 338 339 340 342 344 345 346 346 346
309 311 310 311 312 312 313 314 314 314 313 315 313 312 311 311 312 313 312 314 316 319 316 318 319 318 317 318 325 328 334 338 339 343 343 343 344 345 346 346 346 345 344 344
307 310 311 314 314 314 314 313 313 312 312 313 313 313 310 310 310 311 312 313 314 315 316 318 316 317 317 318 323 329 333 342 345 344 343 344 344 344 345 345 345 344 343 343
309 310 311 313 311 313 315 314 313 315 313 313 314 313 311 311 311 311 312 312 313 314 315 313 314 315 316 318 328 328 331 332 342 343 342 342 342 342 342 341 342 341 341 342
307 307 310 314 314 318 312 314 314 314 314 313 312 312 311 310 310 311 311 311 314 311 310 310 311 313 313 317 326 328 328 330 330 339 340 339 339 338 337 338 337 340 340 339
308 311 316 316 310 312 311 315 313 314 312 311 311 311 311 310 310 310 310 312 311 310 310 309 310 312 313 316 319 329 327 329 329 333 339 338 337 336 335 333 334 334 335 335
311 312 315 315 315 309 305 312 312 310 315 309 310 309 310 310 313 312 307 309 310 309 309 309 311 311 312 314 318 330 329 327 327 333 338 337 336 335 333 333 333 333 333 333
316 315 316 315 315 310 310 313 310 315 312 311 312 310 309 311 311 310 309 310 310 309 309 309 310 310 312 315 319 328 327 326 325 326 331 335 334 334 334 333 333 332 332 331
314 314 314 314 316 314 312 312 314 309 310 312 312 311 311 311 311 310 309 309 309 309 309 309 309 311 313 315 320 329 328 327 325 324 335 334 334 333 332 332 331 331 331 330
313 312 315 314 312 309 309 310 310 311 313 313 312 311 310 309 309 309 309 309 309 309 309 309 310 311 313 316 321 328 325 323 324 329 334 333 333 332 332 332 331 330 330 328
311 309 308 308 309 310 311 311 311 313 314 312 310 307 308 309 308 308 308 309 309 308 310 311 311 312 313 315 321 323 326 324 331 334 334 334 333 332 332 332 331 330 329 329
307 306 307 308 309 310 310 311 311 310 309 308 307 306 306 307 308 308 308 310 309 309 310 311 312 312 314 316 321 325 331 333 333 334 334 332 331 331 331 330 330 330 330 330
307 307 310 310 308 310 311 311 309 307 306 305 305 306 306 307 308 308 309 310 311 311 311 311 311 313 314 317 322 326 327 333 333 332 332 330 328 326 327 327 326 330 331 331
Wind_Speed
2 4 4 9 9 6 2 3 6 5 6 5 9 18 10 6 4 6 7 8 9 9 10 20 22 27 32 26 23 26 25 26 33 30 29 30 36 39 36 37 34 29 26 26
5 2 5 5 4 5 4 3 2 3 4 7 8 22 13 5 6 5 6 7 8 9 10 14 24 25 30 34 32 29 26 26 30 36 32 29 34 37 41 39 33 29 28 27
3 6 4 3 4 3 2 2 3 4 5 5 7 19 6 3 4 5 3 6 8 8 11 13 16 23 29 31 37 34 32 35 33 38 32 27 22 22 24 29 30 30 27 28
4 3 2 4 1 2 3 1 2 5 7 3 4 11 17 5 6 3 9 8 8 8 7 9 13 17 22 30 34 36 35 34 37 36 33 34 32 26 33 36 35 27 27 25
6 4 5 3 2 1 5 2 3 3 5 3 4 4 3 12 13 8 7 5 7 8 10 12 12 20 29 29 31 35 35 31 40 39 42 39 31 31 27 25 26 25 21 23
8 2 3 2 1 0 2 2 4 3 1 2 9 7 6 2 1 3 4 7 9 8 9 13 18 21 23 30 30 31 33 33 36 41 44 40 35 36 26 24 24 21 18 19
3 2 2 3 2 5 6 6 4 4 3 4 3 4 9 12 6 6 6 8 10 12 10 11 13 16 24 25 31 30 28 33 37 42 42 43 43 40 40 32 25 20 19 22
2 5 4 2 3 4 4 7 4 5 3 9 6 6 6 5 5 4 4 8 10 12 16 15 15 13 22 23 32 30 31 33 31 38 39 45 43 43 40 32 27 25 25 25
1 4 3 2 2 4 3 3 5 3 2 2 5 10 8 9 5 4 8 9 10 12 15 20 19 21 24 23 31 33 34 33 31 36 41 41 45 41 38 33 27 26 26 26
3 5 4 1 2 4 2 2 1 2 3 5 5 6 9 12 9 6 8 10 13 13 16 17 18 18 28 26 30 33 31 33 35 39 37 39 45 46 39 30 28 29 28 27
2 4 4 2 4 5 2 1 3 2 3 4 4 7 6 6 8 7 10 10 10 13 17 16 18 24 25 26 26 30 30 27 30 34 39 38 35 32 30 30 28 32 30 31
4 3 3 8 7 6 6 6 5 4 5 4 3 15 7 5 8 6 10 11 9 12 17 16 16 17 19 22 31 31 27 22 29 38 37 37 33 30 27 26 30 33 31 31
5 1 4 7 3 5 1 4 4 2 1 12 6 10 4 5 8 10 11 10 9 11 18 18 18 18 17 23 28 23 24 20 18 30 30 29 28 26 27 30 33 31 31 31
7 4 7 6 7 2 9 11 11 11 5 8 16 27 20 17 16 13 7 9 9 8 17 19 16 20 20 28 26 28 25 17 17 20 23 24 27 30 31 33 32 32 30 34
7 7 6 10 14 12 16 21 20 16 18 12 20 20 23 15 10 7 8 10 11 11 13 18 15 17 21 23 32 29 23 10 20 19 22 24 27 31 32 31 30 30 33 35
2 4 5 7 10 14 19 19 19 20 19 18 21 24 10 5 6 6 10 12 13 14 14 15 17 19 26 27 32 24 15 3 19 19 20 25 27 28 27 29 30 32 32 34
6 5 2 15 10 10 12 18 9 4 6 5 8 18 4 12 10 7 9 13 16 11 13 15 11 12 15 24 18 15 11 12 8 17 20 24 25 25 28 29 31 31 33 35
8 6 4 7 2 7 4 2 2 4 9 10 14 16 10 10 7 8 8 12 7 10 13 16 16 15 25 27 23 22 12 14 15 2 17 22 25 25 27 31 30 35 34 34
12 5 3 3 3 7 8 2 4 4 10 13 16 14 10 8 5 10 8 9 10 11 10 14 21 24 26 23 28 22 16 8 11 11 13 21 26 27 27 28 32 33 32 29
7 6 3 2 2 5 6 2 3 4 9 6 4 12 13 6 8 13 7 5 12 14 13 16 19 25 20 26 26 17 11 7 11 15 15 20 25 29 28 32 32 31 31 30
3 2 7 5 4 7 5 5 4 1 8 3 5 13 15 11 11 16 12 12 12 12 18 23 20 19 21 25 23 9 10 8 5 10 16 23 27 31 34 34 33 32 31 27
5 4 4 3 5 7 4 4 5 7 7 7 14 16 15 18 15 12 13 16 15 14 16 22 16 18 20 22 17 15 5 7 12 14 24 25 34 29 33 33 30 28 27 25
3 3 2 6 5 6 6 8 10 12 15 16 13 16 14 9 11 12 16 19 17 15 14 20 16 19 21 18 15 13 8 4 19 31 26 28 30 30 32 30 27 25 27 24
4 1 3 5 4 8 8 7 9 9 15 16 11 9 12 15 12 17 18 15 15 12 13 17 16 12 14 16 13 16 10 24 23 21 26 27 27 27 29 28 28 26 22 19
8 6 4 5 8 9 10 11 11 8 6 7 9 13 19 17 16 19 15 15 12 12 16 16 14 13 14 21 13 21 7 8 17 23 24 22 26 25 23 21 17 22 25 27
3 5 3 6 11 12 17 15 5 7 9 10 11 13 16 16 15 18 15 14 13 14 15 14 17 13 17 17 17 15 18 13 22 22 22 22 24 22 25 24 16 18 20 22
Wind_Direction
10 92 207 239 207 224 237 239 247 269 285 312 289 294 300 276 248 280 299 310 313 310 304 315 321 325 324 323 282 256 240 241 233 220 212 213 220 229 232 233 234 234 241 247
25 208 212 255 208 195 185 208 251 272 320 327 305 292 293 270 254 231 280 300 298 304 309 312 312 316 317 316 314 293 267 248 237 226 224 212 216 225 229 231 227 237 238 243
157 246 303 11 339 29 341 112 333 271 302 266 307 290 258 264 276 288 270 264 283 277 301 317 320 317 315 312 313 310 286 260 241 233 220 227 215 221 230 233 228 228 236 242
256 265 69 356 303 94 339 76 324 330 350 306 53 290 290 267 272 297 289 308 323 335 332 326 322 318 316 307 305 303 296 267 244 235 212 217 213 213 225 225 225 227 233 239
257 291 328 328 256 93 241 312 289 276 263 278 206 257 283 332 304 284 335 338 327 313 305 305 300 299 303 304 302 300 292 268 249 230 218 214 214 216 220 215 216 219 229 234
245 218 189 200 280 264 347 337 352 358 44 281 211 200 314 208 305 269 282 305 294 279 284 294 297 296 299 307 302 298 290 279 256 233 222 213 210 213 209 210 213 219 221 220
331 354 11 89 353 356 62 50 339 338 357 242 303 313 266 288 249 196 253 287 298 298 291 286 296 302 305 306 305 301 286 268 252 232 221 214 214 212 222 219 219 209 208 209
124 317 174 163 173 216 251 161 161 258 223 280 307 249 250 252 244 261 250 264 284 300 309 306 300 294 291 305 303 299 289 262 249 232 220 218 215 216 223 222 219 218 218 215
31 260 274 321 128 132 264 200 213 219 312 278 227 270 289 258 242 293 321 327 313 308 309 310 309 306 294 298 303 293 287 258 241 228 219 212 215 218 221 222 218 219 220 215
199 289 248 294 33 353 163 211 313 14 266 248 258 259 250 273 288 298 302 303 305 306 310 310 307 300 287 289 300 299 291 249 237 224 217 212 213 216 219 219 213 215 215 208
156 175 278 28 193 212 353 276 82 131 172 216 291 257 217 249 269 267 278 291 290 303 314 308 305 296 281 296 302 311 306 254 234 226 222 218 215 218 218 218 215 214 208 204
202 170 266 240 278 251 172 206 151 133 266 235 238 270 271 269 255 262 264 275 282 301 315 313 315 314 290 312 324 310 303 261 232 225 219 218 217 214 211 212 213 209 201 200
185 249 310 329 16 356 115 206 201 205 266 250 259 263 214 259 276 262 260 268 280 310 327 320 319 318 321 335 314 315 308 281 240 224 212 208 208 204 206 205 204 199 196 191
165 173 192 227 248 212 283 263 259 255 246 261 241 276 275 285 277 283 285 273 270 296 330 312 321 318 325 338 318 316 307 271 242 214 193 187 192 197 195 196 194 193 190 185
151 205 209 243 257 268 267 272 275 260 254 245 271 265 273 276 258 280 302 310 290 291 321 306 317 331 324 325 315 310 314 239 211 189 174 177 178 181 184 182 184 183 183 179
162 250 197 258 247 253 269 270 264 263 261 255 258 266 273 285 297 306 296 304 301 297 296 324 326 341 330 307 292 307 315 190 175 162 156 163 169 172 175 176 175 172 173 175
174 172 160 273 284 294 272 247 231 231 224 221 263 275 290 294 282 276 292 298 299 304 317 304 287 275 277 269 289 317 -0 38 104 150 152 158 161 158 164 161 159 161 164 164
208 168 170 278 281 240 279 337 308 249 268 266 268 260 265 264 269 286 281 287 294 312 314 310 308 313 313 318 323 336 349 9 49 58 153 152 150 149 145 138 146 151 159 162
202 149 227 225 211 300 300 213 199 203 281 275 273 265 264 267 298 283 243 251 276 294 300 310 303 303 307 316 328 319 318 359 7 0 181 158 151 140 140 140 145 155 159 164
114 142 194 168 230 247 237 235 61 73 280 282 260 274 273 321 307 298 300 257 291 300 305 306 299 304 308 313 323 322 323 331 326 13 180 163 149 147 146 146 154 158 163 163
157 202 222 226 248 279 253 131 97 216 264 265 274 267 277 282 276 293 300 288 285 287 309 302 300 298 302 309 324 313 285 291 252 266 289 158 155 151 153 153 155 157 159 158
197 189 209 201 221 263 137 83 189 234 275 286 286 274 268 282 296 298 304 302 301 303 306 299 301 302 299 305 317 312 281 304 253 224 210 162 150 151 154 155 158 157 158 155
268 194 218 209 222 234 206 228 256 272 274 293 283 277 281 276 301 308 300 297 294 296 297 293 293 293 296 307 329 342 275 240 251 253 156 141 147 151 158 154 152 150 156 146
299 321 262 352 273 265 265 273 289 283 275 279 286 288 299 299 306 295 295 294 296 295 287 294 293 287 291 312 336 316 314 268 249 149 128 137 141 149 158 160 162 155 150 146
258 317 253 258 278 306 276 307 293 297 310 314 319 308 297 296 294 291 287 290 289 285 284 283 275 276 294 306 320 299 255 267 135 127 133 135 137 140 139 136 149 164 173 171
208 223 225 277 304 272 280 287 303 311 318 310 305 307 300 299 292 286 287 289 286 283 273 268 266 272 279 295 318 316 315 165 141 131 134 138 136 138 142 144 138 166 176 184